Location: Calmejanne
(44.7523°N, 1.9418°E)
Time: 21:38:34
(UTC+00:00)

ISS - Pass Details

Date: 14 May 2026
Orbit: 415 x 423 km, 51.6° (Epoch: 10 June)

Event Time Altitude Azimuth Distance (km) Brightness Sun altitude
Rises 23:33:58 0° 300° (WNW) 2,358 0.5 -26.3°
Reaches altitude 10° 23:36:04 10° 303° (WNW) 1,493 -0.6 -26.4°
Enters shadow 23:36:38 14° 304° (NW) 1,263 -0.9 -26.4°
